Weather in Idku

Egypt     31°18′47″N   30°17′57″E
temp.,
°C
wind,
m/s
gust,
m/s
humid.,
%
clouds,
%
prec.,
mm/h
press.,
hPa
HPBL,
m
26 june, sun
sun2623:00+25nw56650 0.0 1011494
02:00+24nw57660 0.0 1011530
05:00+24nw56700 0.0 1011455
08:00+26nw55660 0.0 1012575
11:00+26nw66640 0.0 1012518
14:00+27nw78650 0.0 1011559
17:00+27nw68650 0.0 1010469
20:00+26nw47750 0.0 1011278
27 june, mon
mon2723:00+26nw47760 0.0 1011259
02:00+25nw59780 0.0 1010364
05:00+25wnw58780 0.0 1010389
08:00+26nw67670 0.0 1011566
11:00+27nw78680 0.0 1011654
14:00+27nw810650 0.0 1010689
17:00+26nw810690 0.0 1009644
20:00+25nw79730 0.0 1010560
28 june, tue
tue2823:00+25nw68710 0.0 1010520
02:00+24nw57740 0.0 1008461
05:00+24nw56730 0.0 1008437
08:00+26nw54690 0.0 1008673
11:00+26nw65670 0.0 1009640
14:00+27nw77700 0.0 1008641
17:00+26nw77740 0.0 1008636
20:00+25nw67770 0.0 1009545
29 june, wed
wed2923:00+25nw56760 0.0 1009456
02:00+24nw45770 0.0 1008441
05:00+24wnw34790 0.0 1008438
08:00+25nw33700 0.0 1008678
11:00+26nw54680 0.0 1008607
14:00+26nw76680 0.0 1007638
17:00+26nw66730 0.0 1007636
20:00+25nw347910 0.0 1008472
30 june, thu
thu3023:00+25nw22810 0.0 1008356
02:00+24nw11830 0.0 1007311
05:00+24nw12855 0.0 1007333
08:00+25nnw33769 0.0 1008615
11:00+26nnw54690 0.0 1009544
14:00+26nw66660 0.0 1008531
17:00+26nw67690 0.0 1008576
20:00+25nnw56770 0.0 1009402